When you browse on this site, cookies collect data to enhance your experience and personalize the content and advertising you see.
Visit our Privacy Policy to learn more. By continuing to use the site, you agree to this use of cookies and data.
  • In Switzerland
  • List of Countries
  • For 7 days
  • Water Temperature
  • Weather Map
  • Weather Widgets
  • user-avatar
    Login

    Hourly Weather Polotsk

    Today, 5 June, Friday

    Time Temperature Precipitation Wind Pressure Humidity
    00:00 +8°C° 0 mm 2 mps 737 mmHg 93%
    01:00 +8°C° 0 mm 2 mps 737 mmHg 94%
    02:00 +7°C° 0 mm 2 mps 737 mmHg 95%
    03:00 +8°C° 0 mm 1 mps 737 mmHg 95%
    04:00 +8°C° 0 mm 1 mps 737 mmHg 94%
    05:00 +9°C° 0 mm 1 mps 737 mmHg 94%
    06:00 +10°C° 0 mm 1 mps 738 mmHg 88%
    07:00 +12°C° 0 mm 2 mps 738 mmHg 82%
    08:00 +14°C° 0 mm 2 mps 738 mmHg 75%
    09:00 +15°C° 0 mm 2 mps 738 mmHg 68%
    10:00 +17°C° 0 mm 3 mps 738 mmHg 61%
    11:00 +18°C° 0 mm 3 mps 738 mmHg 54%
    12:00 +19°C° 0 mm 3 mps 739 mmHg 54%
    13:00 +19°C° 0 mm 3 mps 739 mmHg 53%
    14:00 +20°C° 0 mm 3 mps 739 mmHg 52%
    15:00 +20°C° 0 mm 3 mps 739 mmHg 54%
    16:00 +20°C° 0 mm 3 mps 739 mmHg 55%
    17:00 +20°C° 0 mm 4 mps 738 mmHg 57%
    18:00 +18°C° 0 mm 4 mps 739 mmHg 64%
    19:00 +17°C° 0 mm 3 mps 739 mmHg 72%
    20:00 +14°C° 0 mm 3 mps 739 mmHg 79%
    21:00 +14°C° 0 mm 4 mps 739 mmHg 80%
    22:00 +14°C° 0 mm 4 mps 738 mmHg 80%
    23:00 +14°C° 0 mm 5 mps 738 mmHg 81%

    Tomorrow, 6 June, Saturday

    Time Temperature Precipitation Wind Pressure Humidity
    00:00 +14°C° 0 mm 5 mps 738 mmHg 85%
    01:00 +14°C° 0 mm 5 mps 738 mmHg 89%
    02:00 +14°C° 0 mm 4 mps 738 mmHg 94%
    03:00 +14°C° 0 mm 4 mps 738 mmHg 94%
    04:00 +14°C° 0 mm 4 mps 738 mmHg 95%
    05:00 +14°C° 0 mm 4 mps 738 mmHg 95%
    06:00 +15°C° 0.7 mm 4 mps 738 mmHg 95%
    07:00 +15°C° 0.7 mm 5 mps 738 mmHg 95%
    08:00 +15°C° 0.7 mm 5 mps 738 mmHg 94%
    09:00 +16°C° 0.6 mm 5 mps 739 mmHg 90%
    10:00 +17°C° 0.6 mm 5 mps 739 mmHg 87%
    11:00 +20°C° 0.6 mm 6 mps 740 mmHg 83%
    12:00 +21°C° 0.1 mm 6 mps 740 mmHg 73%
    13:00 +22°C° 0.1 mm 6 mps 741 mmHg 64%
    14:00 +23°C° 0.1 mm 6 mps 741 mmHg 54%
    15:00 +23°C° 0 mm 6 mps 741 mmHg 57%
    16:00 +22°C° 0 mm 6 mps 742 mmHg 59%
    17:00 +21°C° 0 mm 5 mps 742 mmHg 61%
    18:00 +20°C° 0 mm 4 mps 743 mmHg 67%
    19:00 +18°C° 0 mm 3 mps 743 mmHg 73%
    20:00 +16°C° 0 mm 2 mps 744 mmHg 78%
    21:00 +15°C° 0 mm 2 mps 745 mmHg 81%
    22:00 +14°C° 0 mm 2 mps 745 mmHg 84%
    23:00 +13°C° 0 mm 2 mps 746 mmHg 87%

    Day after tomorrow, 7 June, Sunday

    Time Temperature Precipitation Wind Pressure Humidity
    00:00 +12°C° 0 mm 2 mps 746 mmHg 88%
    01:00 +12°C° 0 mm 2 mps 747 mmHg 89%
    02:00 +12°C° 0 mm 2 mps 747 mmHg 90%
    03:00 +13°C° 0 mm 2 mps 747 mmHg 89%
    04:00 +13°C° 0 mm 2 mps 747 mmHg 88%
    05:00 +13°C° 0 mm 3 mps 747 mmHg 86%
    06:00 +14°C° 0 mm 3 mps 748 mmHg 81%
    07:00 +17°C° 0 mm 3 mps 748 mmHg 76%
    08:00 +19°C° 0 mm 3 mps 748 mmHg 71%
    09:00 +21°C° 0 mm 4 mps 748 mmHg 66%
    10:00 +22°C° 0 mm 4 mps 748 mmHg 61%
    11:00 +23°C° 0 mm 4 mps 749 mmHg 57%
    12:00 +25°C° 0 mm 5 mps 748 mmHg 56%
    13:00 +25°C° 0 mm 5 mps 748 mmHg 55%
    14:00 +26°C° 0 mm 5 mps 748 mmHg 54%
    15:00 +26°C° 0 mm 5 mps 748 mmHg 58%
    16:00 +25°C° 0 mm 5 mps 748 mmHg 61%
    17:00 +25°C° 0 mm 5 mps 747 mmHg 64%
    18:00 +23°C° 0 mm 5 mps 747 mmHg 70%
    19:00 +22°C° 0 mm 4 mps 747 mmHg 77%
    20:00 +21°C° 0 mm 4 mps 747 mmHg 83%
    21:00 +20°C° 0 mm 4 mps 747 mmHg 84%
    22:00 +20°C° 0 mm 4 mps 747 mmHg 85%
    23:00 +19°C° 0 mm 4 mps 747 mmHg 87%

    8 June, Monday

    Time Temperature Precipitation Wind Pressure Humidity
    00:00 +19°C° 0.2 mm 4 mps 747 mmHg 89%
    01:00 +18°C° 0.2 mm 3 mps 747 mmHg 92%
    02:00 +18°C° 0.2 mm 3 mps 747 mmHg 94%
    03:00 +18°C° 0 mm 3 mps 747 mmHg 94%
    04:00 +18°C° 0 mm 3 mps 747 mmHg 94%
    05:00 +18°C° 0 mm 3 mps 747 mmHg 94%
    06:00 +20°C° 0 mm 3 mps 747 mmHg 89%
    07:00 +21°C° 0 mm 3 mps 747 mmHg 84%
    08:00 +24°C° 0 mm 3 mps 747 mmHg 79%
    09:00 +25°C° 0 mm 3 mps 747 mmHg 72%
    10:00 +26°C° 0 mm 3 mps 747 mmHg 65%
    11:00 +28°C° 0 mm 4 mps 748 mmHg 59%
    12:00 +28°C° 0 mm 4 mps 747 mmHg 57%
    13:00 +29°C° 0 mm 4 mps 747 mmHg 55%
    14:00 +29°C° 0 mm 4 mps 747 mmHg 53%
    15:00 +29°C° 0.2 mm 3 mps 747 mmHg 57%
    16:00 +28°C° 0.2 mm 3 mps 747 mmHg 61%
    17:00 +28°C° 0.2 mm 3 mps 746 mmHg 65%
    18:00 +26°C° 0.1 mm 3 mps 746 mmHg 72%
    19:00 +25°C° 0.1 mm 3 mps 746 mmHg 79%
    20:00 +23°C° 0.1 mm 2 mps 746 mmHg 86%
    21:00 +21°C° 0 mm 2 mps 747 mmHg 89%
    22:00 +20°C° 0 mm 2 mps 747 mmHg 92%
    23:00 +19°C° 0 mm 2 mps 747 mmHg 94%

    9 June, Tuesday

    Time Temperature Precipitation Wind Pressure Humidity
    00:00 +19°C° 0 mm 2 mps 747 mmHg 95%
    01:00 +18°C° 0 mm 2 mps 747 mmHg 95%
    02:00 +18°C° 0 mm 2 mps 747 mmHg 95%
    03:00 +18°C° 0 mm 2 mps 747 mmHg 94%
    04:00 +18°C° 0 mm 2 mps 747 mmHg 94%
    05:00 +18°C° 0 mm 2 mps 747 mmHg 94%
    06:00 +20°C° 0 mm 2 mps 747 mmHg 87%
    07:00 +23°C° 0 mm 2 mps 748 mmHg 81%
    08:00 +25°C° 0 mm 2 mps 748 mmHg 75%
    09:00 +26°C° 0 mm 3 mps 748 mmHg 69%
    10:00 +27°C° 0 mm 3 mps 748 mmHg 63%
    11:00 +28°C° 0 mm 3 mps 748 mmHg 57%
    12:00 +29°C° 0 mm 3 mps 748 mmHg 56%
    13:00 +29°C° 0 mm 3 mps 748 mmHg 54%
    14:00 +30°C° 0 mm 3 mps 748 mmHg 53%
    15:00 +29°C° 0 mm 3 mps 748 mmHg 54%
    16:00 +29°C° 0 mm 2 mps 747 mmHg 56%
    17:00 +29°C° 0 mm 2 mps 747 mmHg 58%
    18:00 +27°C° 0.2 mm 2 mps 747 mmHg 66%
    19:00 +25°C° 0.2 mm 2 mps 748 mmHg 75%
    20:00 +23°C° 0.2 mm 2 mps 748 mmHg 84%
    21:00 +21°C° 0 mm 2 mps 748 mmHg 86%
    22:00 +22°C° 0 mm 1 mps 748 mmHg 87%
    23:00 +21°C° 0 mm 1 mps 748 mmHg 89%

    10 June, Wednesday

    Time Temperature Precipitation Wind Pressure Humidity
    00:00 +20°C° 0 mm 1 mps 748 mmHg 91%
    01:00 +20°C° 0 mm 1 mps 748 mmHg 92%
    02:00 +20°C° 0 mm 1 mps 748 mmHg 93%
    03:00 +20°C° 0 mm 1 mps 748 mmHg 93%
    04:00 +20°C° 0 mm 1 mps 748 mmHg 93%
    05:00 +21°C° 0 mm 1 mps 748 mmHg 92%
    06:00 +22°C° 0 mm 1 mps 748 mmHg 87%
    07:00 +24°C° 0 mm 1 mps 748 mmHg 81%
    08:00 +25°C° 0 mm 2 mps 748 mmHg 76%
    09:00 +27°C° 0.1 mm 2 mps 748 mmHg 69%
    10:00 +28°C° 0.1 mm 2 mps 749 mmHg 63%
    11:00 +29°C° 0.1 mm 2 mps 749 mmHg 57%
    12:00 +30°C° 0 mm 2 mps 748 mmHg 54%
    13:00 +30°C° 0 mm 2 mps 748 mmHg 52%
    14:00 +31°C° 0 mm 2 mps 748 mmHg 49%
    15:00 +30°C° 0.1 mm 2 mps 748 mmHg 53%
    16:00 +30°C° 0.1 mm 2 mps 748 mmHg 56%
    17:00 +29°C° 0.1 mm 2 mps 748 mmHg 60%
    18:00 +27°C° 0.1 mm 2 mps 748 mmHg 68%
    19:00 +26°C° 0.1 mm 2 mps 748 mmHg 76%
    20:00 +24°C° 0.1 mm 2 mps 748 mmHg 84%
    21:00 +23°C° 0 mm 2 mps 748 mmHg 87%
    22:00 +22°C° 0 mm 1 mps 748 mmHg 90%
    23:00 +21°C° 0 mm 1 mps 748 mmHg 92%
    Show more